NOAA 16 DEB

Satellite information

Favourite Embed

Satellite Type and Status

DEBRISIN ORBIT

Key statistics

Satellite NOAA 16 DEB at a glance.

Uptime

8996

Days in orbit

Revolutions

≈ 14.3

Per day

Orbit

SSO

Sun Synchronous Orbit

Inclination

98.7

Latest

Satellite identification and parameters

Extended collection of information and parameters for NOAA 16 DEB.

Object identification

Identified? True

Debris? True

Object name: NOAA 16 DEB

International designator: 2000-055SC

Object number (NORAD): 42384

Object ID (CCSDS): 42384

Country: UNITED STATES OF AMERICA (US)

Current information (Y/N): Y

RCS size: SMALL

Orbital parameters

Period: 100.724 minutes

Inclination: 98.6825 deg

SMA: 7171.057 km

Apoapsis: 803.62 km

Periapsis: 782.224 km

RAAN: 199.3591 deg

Eccentricy: 0.0014918

Argument of periapsis: 75.0916 deg

Mean anomaly: 285.1916 deg

Mean motion: 14.29644265 rev/day

Mean motion (dot): 0.00005991 rev/day2

B* drag term: 0.0023512 1/REarth

Two-line elements (TLE)

Creation date: May 7, 2025, 3:14 a.m.

Reference frame: TEME

Reference center: EARTH

Epoch: May 6, 2025, 3:53 a.m. UTC

TLE line 0: 0 NOAA 16 DEB

TLE line 1: 1 42384U 00055SC 25126.16225194 .00005991 00000-0 23512-2 0 9996

TLE line 2: 2 42384 98.6825 199.3591 0014918 75.0916 285.1916 14.29644265473738

Live tracking on map

Real-time ground track for satellite NOAA 16 DEB.

In-orbit conjunctions

A list of the most updated potential collisions computed for object NOAA 16 DEB.

Target Orbit TCA Probability of collision Miss distance Type
COSMOS 2251 DEB LEO 2025-04-16 07:37:31 0.000311235 165.0 (m) DEBRIS
COSMOS 2251 DEB LEO 2024-11-11 13:16:09 0.0001648243 528.0 (m) DEBRIS
FENGYUN 1C DEB SSO 2024-09-22 00:05:28 0.0003684685 118.0 (m) DEBRIS

Associated space launch

The NOAA K, L and M POES satellites begin the fifth generation of improved environmental monitoring in support of NOAA missions. The instrument payload has significant improvements and additions/deletions. The instrument changes have effected the spacecraft subsystems and data formats.

NOAA 16 DEB was lifted into orbit during the mission ‘Titan II SLV | NOAA 16’, on board a Titan II SLV space rocket.

The launch took place on Sept. 21, 2000, 10:22 a.m. from Space Launch Complex 4W.

For more information about the launch, click the button.

Launch to space Titan II SLV | NOAA 16
Titan II SLV | NOAA 16

Agency: N/A

Status: Launch Successful

Launch date: Sept. 21, 2000, 10:22 a.m. UTC

Rocket: Titan II SLV

Launch pad: Space Launch Complex 4W

Location: Vandenberg SFB, CA, USA

...

Latest news about this satellite

There are no fresh news available about this satellite. Check back as we update our databases every day.


Newsletter sign-up

Weekly statistics, charts and insights to help you stay on top of the space industry.